GFSMA_850_dewp_126.txt.gz
Dewpoint
10 9 9 3 -2 -2 1 2 2 3 7 8 9 9 9 8 8 7 6 5 5 5 6 7 7 7 5 4 5 5 5 5 6 6 6 6 6 6 5 5 4 3 1
10 8 8 3 -2 -1 2 3 3 5 7 9 10 10 10 10 9 9 7 7 5 5 6 7 8 9 8 5 5 5 4 5 5 5 6 6 7 7 6 6 5 4 3
9 6 7 2 -1 1 3 5 7 8 9 9 10 10 10 10 9 8 6 6 6 6 6 6 7 8 9 8 6 7 6 7 8 7 6 6 6 7 7 7 6 5 4
9 5 6 3 1 3 4 5 7 8 10 10 9 8 7 7 8 8 8 8 8 7 7 8 8 8 8 9 9 10 10 9 10 9 8 8 7 6 7 7 8 7 6
8 4 6 3 2 4 4 5 7 8 9 9 9 9 9 9 9 9 8 9 9 8 8 8 8 9 9 9 9 9 10 10 10 9 9 9 8 8 8 7 7 8 7
6 10 8 4 4 5 5 7 7 9 8 8 9 11 11 10 10 9 9 9 9 8 8 8 8 8 9 9 10 10 10 10 10 10 10 10 8 7 6 7 7 7 7
5 11 10 6 4 7 6 7 8 7 7 9 10 12 11 9 9 9 9 9 9 9 9 9 9 9 9 9 10 10 10 10 10 10 9 10 9 7 7 6 5 6 8
8 11 11 6 7 8 9 11 8 7 7 10 10 10 10 10 10 10 10 10 10 9 9 10 10 10 10 10 10 10 10 10 10 9 10 9 9 7 6 6 5 5 4
9 11 10 8 8 10 10 10 7 5 4 9 10 9 11 11 11 11 11 10 9 9 9 9 9 9 9 10 10 10 10 9 8 7 8 7 8 8 8 7 6 7 5
11 9 10 10 7 10 10 9 6 3 4 7 10 9 10 9 10 10 10 10 10 9 9 9 8 7 8 9 10 9 7 7 7 6 6 6 7 8 8 8 7 7 5
11 9 9 10 10 10 9 9 6 3 5 8 9 9 10 9 8 8 9 10 9 8 8 9 9 8 7 7 8 7 7 7 7 7 6 7 7 7 8 8 7 7 6
11 10 10 10 10 11 11 9 4 4 7 8 9 8 10 9 9 7 8 9 10 8 7 8 7 6 4 5 6 7 7 6 6 6 6 7 7 7 8 7 6 7 6
11 11 10 11 11 11 11 6 5 8 9 9 10 11 11 9 8 8 9 9 9 7 7 7 6 5 3 4 4 3 2 2 2 4 4 4 5 8 7 7 6 7 6
10 10 10 11 11 11 8 6 9 10 10 11 11 11 9 9 9 9 10 9 9 7 6 7 4 3 5 5 4 2 1 -0 -1 1 3 3 7 7 7 6 7 6 6
10 9 9 11 11 9 7 9 10 10 11 11 11 8 7 9 10 10 10 10 9 7 6 5 3 3 4 3 2 1 -1 -1 0 1 0 5 6 6 6 6 6 5 4
10 10 11 10 9 8 9 11 11 11 11 11 10 7 8 10 10 9 10 10 9 6 5 1 2 4 2 1 -1 -2 -1 -1 -0 1 3 4 6 5 6 7 5 4 3
10 10 10 9 9 9 9 11 11 11 11 9 7 8 9 10 8 6 7 8 5 5 -1 0 2 2 1 -1 -1 -1 -1 -1 -2 0 2 2 4 4 5 5 3 4 5
9 10 8 8 8 10 9 11 11 11 10 9 8 7 10 9 7 7 6 6 4 -1 -1 0 1 -0 -1 -1 -0 -1 -1 -2 -2 -2 2 3 3 4 4 4 4 4 4
8 8 9 9 8 7 7 9 10 11 10 8 8 9 10 9 7 7 5 5 -0 -1 -1 -1 -1 -0 -0 -0 -1 -2 -2 -3 -3 -2 -1 3 3 3 4 4 5 4 5
9 10 9 8 7 7 7 9 9 10 9 8 8 8 8 7 7 6 6 2 -0 -1 -1 -1 -0 -0 -0 -1 -1 -2 -2 -3 -3 -1 1 3 2 2 2 3 4 4 3
10 9 7 9 8 7 8 10 10 8 8 8 9 8 9 9 8 6 4 0 -1 -1 -0 -0 -0 -0 -1 -1 -1 -2 -2 -2 -2 -2 1 1 2 2 3 3 3 3 3
9 9 10 10 9 9 10 10 9 9 9 9 9 9 8 9 8 6 1 0 -0 -0 0 0 0 -0 -1 -1 -1 -2 -2 -2 -2 -1 0 2 2 2 3 3 2 2 3
9 9 9 9 9 8 8 9 9 10 10 9 9 9 9 8 5 1 -0 -0 -0 0 0 0 -0 -1 -1 -1 -1 -1 -2 -2 -2 -1 -0 -0 1 2 2 2 2 2 2
9 9 9 9 9 9 9 9 9 9 9 9 8 8 8 6 1 -0 -0 0 0 0 -0 -1 -1 -1 -1 -1 -1 -1 -1 -1 -1 -1 -0 -0 -0 0 2 2 2 2 2
7 8 8 8 9 7 8 8 8 8 7 7 7 5 3 0 0 0 0 1 -0 -1 -1 -1 -1 -1 -1 -1 -1 -1 -1 -1 -1 -1 -1 -0 0 1 1 1 1 1 1
7 7 7 7 7 6 6 7 6 6 5 4 2 1 1 1 0 1 1 -1 -1 -2 -3 -2 -2 -1 -1 -1 -1 -1 -2 -2 -2 -1 -1 -1 -0 0 0 1 1 1 1

GFSMA_850_dewp_132.txt.gz
Dewpoint
12 12 9 9 0 1 -2 -2 -0 2 2 3 3 5 5 4 4 3 4 4 4 5 6 7 7 8 7 5 5 5 4 5 6 6 7 6 6 6 6 6 6 5 4
12 13 10 11 2 -2 -3 -1 0 1 3 3 4 6 7 7 7 6 6 6 5 5 5 6 7 8 9 8 7 6 7 7 9 9 8 8 8 7 7 6 7 7 6
11 12 11 11 9 -1 -3 -0 2 3 3 4 5 7 8 9 8 8 6 6 6 6 6 6 6 7 7 8 9 10 9 11 10 10 9 9 9 8 8 7 7 7 7
11 12 12 10 11 3 -3 0 2 3 4 5 6 7 9 9 8 7 7 6 7 7 7 7 7 8 9 10 9 9 10 10 10 10 10 10 10 9 8 7 7 7 7
11 12 12 12 10 6 -3 1 2 3 6 6 8 9 9 8 7 7 8 8 8 8 8 8 8 8 8 9 9 9 10 9 10 9 9 9 9 9 8 6 6 6 6
11 11 11 13 10 7 -2 2 2 4 6 8 9 9 9 8 7 8 9 9 9 8 8 8 8 8 8 8 8 9 10 10 9 8 9 9 8 8 7 6 6 6 4
11 11 12 12 12 9 -1 1 3 4 8 10 9 9 9 9 9 9 9 8 8 9 8 8 9 9 9 9 9 9 10 9 9 9 8 6 8 8 8 7 8 6 6
11 10 11 12 12 10 3 0 4 7 9 9 9 9 10 10 11 10 9 8 8 9 9 9 9 9 9 9 9 9 9 9 9 9 6 6 7 7 7 7 8 7 7
10 11 11 11 12 11 7 0 5 7 7 9 9 8 10 10 11 10 9 9 8 9 9 8 9 8 8 9 9 8 9 9 9 6 6 5 7 7 7 8 7 8 7
11 10 11 12 11 12 10 2 5 7 8 8 9 9 8 8 8 9 9 9 10 10 9 9 8 7 8 7 7 7 8 7 6 5 5 6 5 6 7 7 7 7 7
11 10 10 11 11 12 9 7 4 6 8 8 8 7 8 9 9 9 9 9 10 10 9 9 8 7 8 7 6 6 6 5 5 5 5 5 4 4 7 7 8 7 7
10 10 11 12 11 12 10 7 5 5 7 8 9 7 6 9 9 9 9 8 9 9 9 9 8 5 6 6 5 4 5 5 4 2 1 0 0 1 6 7 8 7 7
10 12 11 12 12 11 10 7 7 6 7 9 8 8 6 8 8 9 9 8 8 8 9 9 8 4 3 3 2 0 2 1 0 0 -0 -2 -1 1 8 8 7 7 7
6 11 11 11 11 12 10 10 10 8 8 9 10 9 7 7 9 10 9 9 8 8 9 8 7 4 4 3 0 -0 1 1 -1 -1 -2 -2 -2 -2 5 7 6 6 6
7 11 10 12 11 11 11 8 5 4 9 9 10 10 8 7 10 10 9 10 8 8 8 7 5 4 4 4 1 2 1 -0 -2 -2 -2 -2 -1 -1 1 5 6 6 6
8 10 11 10 11 10 9 5 1 0 9 9 10 10 8 6 9 10 10 9 9 9 9 6 6 4 4 1 1 1 0 -1 -2 -2 -2 -2 -1 -0 2 3 5 5 5
9 10 10 11 11 11 11 8 9 9 11 9 10 10 8 7 10 10 9 8 8 8 7 7 4 4 4 0 -0 0 0 -1 -2 -2 -3 -2 -2 -1 2 2 3 5 5
9 10 11 10 11 11 9 7 10 9 11 10 9 9 7 9 10 9 9 8 8 8 8 6 5 3 1 -0 -2 -1 -1 -1 -2 -3 -3 -3 -3 -3 -1 1 3 4 4
11 10 11 11 11 11 11 9 10 9 10 9 9 9 7 8 10 8 9 8 8 8 8 8 8 4 1 -1 -1 -2 -0 -1 -1 -2 -3 -3 -3 -2 -1 1 3 4 4
11 11 11 10 10 11 10 10 10 8 7 6 6 6 6 7 7 7 8 8 8 8 7 9 7 3 1 -0 -0 -1 -1 -0 -1 -2 -2 -3 -3 -2 0 2 3 3 2
10 9 9 9 9 9 9 9 8 7 5 6 6 6 6 7 7 5 7 8 8 8 7 8 7 2 2 0 0 -1 -0 -1 -1 -2 -2 -2 -2 -1 1 2 2 2 2
9 9 9 9 9 6 7 8 8 8 8 8 7 7 7 7 7 7 9 8 8 8 8 8 6 4 2 3 -0 -0 0 -1 -1 -2 -2 -2 -2 -1 1 2 2 2 2
9 8 9 9 8 8 8 9 9 9 9 9 8 8 8 8 7 6 7 8 9 9 9 8 7 4 4 2 0 0 0 -0 -1 -1 -2 -2 -2 -2 0 2 2 2 2
9 9 9 10 9 9 9 9 9 9 9 9 9 9 9 9 9 9 8 9 9 9 7 6 5 5 4 2 1 1 0 -0 -1 -1 -1 -2 -2 -2 -1 -0 1 2 2
8 8 9 9 8 8 8 7 7 8 8 8 8 8 8 7 7 7 6 6 6 6 5 5 4 3 3 3 2 0 -0 -1 -1 -1 -1 -2 -2 -2 -1 -1 -0 1 1
7 7 7 7 7 7 7 7 7 7 7 6 6 6 6 6 5 5 5 5 4 4 4 4 4 4 3 2 2 1 -1 -1 -1 -1 -1 -2 -2 -2 -1 -1 -0 0 1

GFSMA_850_dewp_135.txt.gz
Dewpoint
13 12 11 6 8 5 -1 -2 -1 2 3 2 2 3 2 2 2 3 3 4 4 5 5 6 7 8 7 6 6 6 5 7 8 8 8 8 8 8 7 6 6 6 5
12 12 12 8 6 7 2 -2 -1 2 3 4 3 3 4 4 4 4 4 4 4 4 5 6 6 7 8 8 8 7 8 9 9 9 9 9 9 8 8 7 6 6 6
11 11 11 10 9 4 4 -1 -2 3 4 4 5 5 5 6 6 7 6 6 6 6 6 6 6 7 8 10 10 11 11 11 10 10 10 9 9 9 8 7 6 6 6
11 11 11 12 10 8 0 -2 -2 1 3 4 5 6 7 8 8 8 7 6 6 6 7 7 7 8 9 9 9 9 9 9 9 10 9 9 9 8 8 7 5 5 5
12 11 10 11 11 11 5 -3 -2 1 3 4 5 8 8 9 9 8 7 7 7 8 7 7 8 7 7 7 8 8 8 9 9 8 8 9 8 8 8 6 5 6 5
12 12 11 10 12 12 11 1 -2 1 3 5 7 8 9 9 8 7 7 8 8 8 8 8 8 8 8 8 8 8 8 9 9 8 9 8 7 8 7 6 6 6 5
13 12 12 11 11 12 11 7 -2 2 3 7 9 9 10 9 8 7 7 9 9 8 8 8 8 8 8 9 9 9 9 9 9 9 9 7 7 7 5 5 6 7 6
13 12 12 11 10 12 12 10 -1 2 4 7 9 9 9 9 8 8 8 9 9 8 8 8 8 8 8 9 9 9 9 9 9 9 8 6 6 6 5 6 6 6 7
13 13 13 11 11 11 12 11 4 -0 3 6 8 9 9 10 8 8 9 9 8 8 8 9 8 8 8 8 8 9 8 8 8 8 6 5 6 7 7 6 7 7 7
10 12 12 12 11 11 11 12 10 -0 3 4 9 10 9 7 8 9 9 9 8 8 9 9 9 8 8 6 7 7 7 6 7 6 6 5 5 5 7 6 7 8 7
9 10 12 11 10 11 11 11 11 4 1 5 8 9 9 9 8 7 7 8 8 8 9 9 8 9 8 6 6 6 5 4 4 5 6 5 5 3 5 6 7 8 7
8 11 11 11 11 11 10 11 12 10 3 6 9 9 7 8 8 9 8 8 7 8 9 9 8 8 8 6 6 7 6 3 4 2 2 0 -0 -1 -0 5 7 7 7
8 11 11 11 12 11 10 11 11 11 7 5 7 8 8 8 8 8 9 8 8 8 9 9 8 9 8 5 4 4 2 1 2 0 -0 -1 -2 -3 -2 4 6 7 7
2 7 11 10 11 11 11 10 11 12 9 4 7 6 7 8 9 8 9 9 9 8 8 7 7 8 8 4 4 3 1 -0 0 -0 -1 -2 -3 -3 -1 1 5 6 6
1 1 11 11 11 11 10 10 11 12 9 6 4 7 7 7 8 9 9 9 10 9 9 8 7 8 7 4 3 2 -0 -1 -1 -1 -2 -3 -3 -3 -2 -1 -1 2 5
3 4 5 10 10 11 12 12 11 12 11 7 5 8 7 8 7 10 8 8 10 10 10 8 7 7 6 4 4 3 -0 -0 -1 -2 -3 -3 -3 -3 -3 -1 1 1 2
2 3 4 7 8 11 11 11 11 12 11 7 9 9 7 7 7 9 9 8 10 10 9 7 8 7 6 5 4 3 1 0 0 -2 -3 -3 -3 -3 -3 -1 2 2 2
3 2 2 5 7 10 10 11 11 12 11 11 9 7 5 8 7 8 9 7 8 8 8 8 8 8 6 6 5 3 2 0 -0 -1 -2 -3 -3 -4 -3 -3 -2 -0 2
3 3 3 7 8 10 10 10 10 11 11 9 7 5 5 7 7 6 8 7 7 7 8 8 8 8 7 7 6 4 3 2 1 0 -2 -2 -3 -3 -3 -2 -2 1 3
7 7 8 9 9 10 10 10 10 11 11 8 7 7 5 6 6 7 7 7 5 6 7 8 8 9 8 9 7 4 3 2 2 -0 -1 -2 -2 -3 -3 -2 -1 0 3
7 8 9 10 10 11 11 10 10 11 10 9 8 10 9 8 8 7 7 7 7 7 7 8 7 8 8 9 7 4 3 3 2 -0 -1 -2 -2 -2 -2 -2 -1 1 2
9 10 10 9 9 9 9 9 10 9 10 9 8 7 7 7 8 7 7 7 7 7 8 8 8 7 7 8 8 5 4 4 2 0 -0 -1 -2 -2 -2 -2 -1 1 1
9 9 9 9 8 8 7 8 8 8 8 8 8 8 8 8 7 9 9 9 9 8 8 8 9 9 9 8 8 5 4 3 1 1 -0 -1 -2 -2 -2 -2 -1 1 2
8 8 9 9 10 8 8 8 7 8 9 9 9 9 8 8 9 9 9 8 8 8 8 8 8 8 9 8 5 5 4 2 1 0 -0 -1 -1 -2 -2 -2 -1 1 1
8 8 7 7 8 8 9 8 8 8 8 8 8 8 7 6 6 5 5 6 5 5 5 5 4 4 4 4 4 4 3 3 3 1 -0 -1 -1 -1 -2 -2 -1 0 1
7 7 7 7 7 7 7 7 7 7 7 7 7 6 6 6 5 5 5 5 4 3 3 4 4 3 3 3 3 3 3 3 3 2 -1 -1 -1 -1 -1 -2 -1 -1 0

GFSMA_850_dewp_138.txt.gz
Dewpoint
13 13 12 9 11 12 11 10 9 9 8 9 9 9 7 7 6 6 10 4 4 5 6 6 7 7 7 6 6 6 6 8 8 9 8 8 8 8 8 7 6 6 5
12 13 12 12 11 10 8 7 5 8 9 9 9 8 7 5 6 6 9 4 4 4 5 6 6 7 8 8 8 7 7 9 10 9 9 9 9 8 8 7 6 6 6
12 12 12 12 12 11 8 3 6 5 9 8 9 9 8 9 6 5 7 10 6 5 5 5 5 6 7 9 10 11 11 10 10 10 10 9 9 8 8 8 6 5 5
12 12 12 12 12 12 9 6 3 6 7 6 9 9 9 8 9 9 8 7 6 7 6 6 6 8 10 10 9 9 8 8 9 9 9 8 9 8 7 7 5 5 5
12 13 12 12 12 12 10 6 4 4 8 9 9 9 9 9 9 10 8 8 7 6 7 6 7 7 7 7 7 8 8 9 9 9 8 8 8 7 7 6 5 5 4
13 13 13 12 13 12 11 9 3 1 7 9 9 9 9 8 9 9 9 8 8 7 8 8 7 8 8 8 8 8 8 8 9 9 8 8 8 7 8 7 6 7 5
13 13 13 12 12 12 12 11 7 -1 2 8 9 9 10 9 9 9 8 7 7 8 8 8 8 8 8 8 8 9 8 9 9 9 9 9 7 7 6 6 6 6 6
13 13 14 13 12 11 12 12 11 6 6 7 9 9 9 10 10 9 8 6 6 8 8 7 8 8 8 8 8 8 9 8 9 9 8 8 6 6 6 6 7 6 6
13 13 13 13 13 12 12 12 12 11 4 7 7 9 8 8 9 10 8 7 7 7 7 7 8 9 8 8 8 8 8 8 8 8 8 6 4 4 5 7 7 7 7
13 13 13 13 13 12 12 11 12 12 9 7 6 9 9 10 10 10 9 8 7 7 7 7 7 9 9 8 8 7 7 7 7 7 7 5 4 4 4 5 7 8 8
13 13 12 13 13 13 12 11 11 12 12 5 4 8 10 9 10 10 10 6 7 7 8 7 7 9 9 9 8 6 6 6 5 5 5 4 4 1 0 2 6 7 8
11 13 13 13 13 12 12 12 11 11 12 10 4 5 9 9 10 9 9 8 6 6 7 7 7 9 9 8 8 6 6 5 4 3 5 4 1 -1 -1 -2 2 6 7
8 10 9 11 12 12 11 11 11 11 12 11 10 5 7 5 7 8 9 9 9 8 7 8 7 8 9 8 8 7 4 3 2 -0 3 1 -1 -1 -3 -3 -3 1 4
7 8 5 11 11 12 12 11 11 11 11 11 12 9 4 2 6 8 9 9 9 9 9 8 7 8 8 8 8 7 4 3 2 0 0 0 -1 -2 -3 -3 -3 -2 1
5 7 4 10 11 12 12 11 11 11 11 11 11 12 9 4 3 9 8 10 9 9 10 8 8 8 8 7 8 8 4 3 2 0 0 0 -1 -3 -3 -3 -3 -1 -1
4 6 8 8 9 11 12 11 11 11 12 11 11 12 11 7 4 6 7 9 8 9 9 9 8 8 8 8 8 8 5 4 3 1 -0 -0 -1 -2 -3 -3 -3 -3 -2
2 6 8 9 9 9 11 11 11 11 11 11 11 11 12 9 7 6 9 7 8 9 9 9 8 7 8 8 8 8 6 4 4 3 2 1 -0 -2 -3 -3 -4 -3 -2
5 4 8 8 9 9 9 9 9 11 11 11 11 11 11 11 7 6 6 8 8 8 7 8 8 6 7 7 7 7 6 5 5 3 2 2 0 -1 -2 -3 -4 -4 -3
4 5 6 7 8 8 9 8 7 8 10 11 11 11 11 11 10 6 8 9 6 6 7 8 8 7 7 8 8 8 6 6 7 5 4 2 1 -1 -2 -3 -3 -3 -3
5 4 5 5 3 4 6 7 7 9 9 10 11 11 10 10 10 10 9 5 7 8 8 7 8 8 7 8 9 9 8 7 7 6 5 4 2 -0 -1 -2 -3 -3 -3
2 1 3 4 3 6 6 8 9 9 9 10 9 10 10 10 9 8 6 5 6 8 9 9 8 8 7 8 9 9 9 8 8 7 6 4 3 0 -1 -2 -2 -2 -3
6 5 5 8 8 8 9 9 10 10 10 10 10 10 9 9 9 8 9 9 8 9 8 8 7 9 8 9 8 8 9 9 8 8 6 5 3 1 -0 -1 -2 -2 -2
8 7 8 8 9 10 9 9 10 9 9 8 7 6 6 6 7 8 8 7 7 7 8 8 8 8 8 8 7 8 8 8 8 8 6 5 4 2 -1 -1 -2 -2 -2
8 9 9 9 9 8 7 8 8 8 8 6 6 7 8 8 9 8 8 7 7 6 8 8 8 8 8 7 7 6 5 6 6 6 5 3 1 1 -0 -1 -2 -2 -2
7 7 7 7 8 8 8 8 8 8 8 8 8 8 8 7 7 7 6 6 5 5 5 5 5 5 5 5 4 4 3 3 3 3 3 2 2 1 -0 -1 -2 -2 -1
6 6 6 7 7 7 7 7 7 7 7 7 6 6 6 6 6 5 5 5 5 5 4 4 3 3 4 3 3 3 2 2 2 2 3 2 2 1 0 -1 -1 -1 -1

GFSMA_850_dewp_141.txt.gz
Dewpoint
13 14 13 13 12 12 12 11 11 10 11 9 9 8 8 9 9 10 10 4 4 5 5 6 6 7 6 6 6 6 6 7 8 9 9 9 9 8 8 7 6 6 6
12 13 13 13 12 12 12 11 10 10 10 9 9 9 9 8 9 10 10 7 4 4 4 5 6 6 7 7 7 7 7 8 9 10 9 9 9 9 8 8 7 6 5
13 12 13 13 13 13 12 11 10 9 9 9 9 9 9 9 8 9 9 10 6 3 4 4 5 6 6 6 9 10 11 11 10 10 9 9 9 9 8 8 7 5 6
13 13 13 13 13 13 12 10 9 8 9 9 9 9 9 9 9 9 10 10 11 9 4 5 6 6 8 10 10 9 9 8 8 9 9 8 8 8 8 8 6 5 6
13 13 13 13 13 13 12 11 9 8 8 9 9 9 9 10 10 10 10 10 9 7 8 8 6 6 7 7 7 7 7 7 8 9 9 8 8 8 7 7 6 5 6
13 14 14 13 13 13 13 12 10 8 8 8 9 9 9 10 10 10 11 10 10 8 5 6 6 6 7 7 7 7 7 7 7 8 8 8 8 8 6 7 6 5 7
13 14 14 13 13 13 13 12 11 8 7 7 8 9 9 10 10 10 11 11 11 8 6 6 6 7 7 7 7 7 7 8 8 8 9 9 9 8 5 5 5 5 6
14 14 14 13 13 13 13 12 11 9 7 6 8 9 9 9 10 10 9 10 9 9 6 6 7 7 7 8 7 7 7 8 9 9 9 8 8 8 5 4 4 5 5
12 14 14 13 13 13 13 12 12 10 9 6 6 9 9 8 9 9 8 8 8 7 6 6 7 7 6 8 8 7 7 7 7 8 8 8 8 6 6 8 7 5 6
6 11 13 13 13 13 13 13 12 11 10 9 7 6 8 8 8 9 10 10 9 9 8 7 7 6 6 7 8 8 8 6 6 7 6 6 6 5 5 5 5 7 8
5 7 10 13 13 13 13 13 13 12 11 10 10 8 5 9 10 10 10 10 10 9 7 6 6 7 6 7 8 8 8 6 5 6 4 3 3 3 4 4 4 6 7
6 7 8 11 13 13 13 12 13 13 12 12 11 9 8 7 9 10 9 9 10 7 6 5 6 7 7 6 7 8 7 7 5 5 5 3 2 1 2 0 -1 5 6
7 7 7 9 11 13 12 13 12 13 12 12 12 11 10 8 7 9 8 8 9 9 8 7 5 6 7 7 6 8 8 8 6 4 4 3 1 -1 -0 -1 -2 -2 6
5 7 7 6 10 11 12 12 12 12 12 12 12 11 11 10 7 6 9 9 9 9 10 6 7 5 5 7 7 8 8 8 8 4 3 2 1 -1 -0 -1 -2 -3 -3
3 4 7 7 8 11 11 10 11 12 12 12 12 12 12 12 11 11 8 7 5 9 9 9 9 7 6 6 7 8 7 7 8 6 3 3 1 0 1 -0 -2 -2 -3
2 3 3 7 6 7 8 11 11 12 12 12 11 12 12 12 11 11 10 9 9 9 9 9 9 8 7 7 6 8 7 8 7 8 4 4 2 1 1 0 -2 -2 -2
-6 -3 0 1 7 7 7 9 10 11 11 11 11 11 11 11 11 11 11 10 10 8 8 9 9 9 8 8 7 7 7 7 7 7 6 4 4 2 2 1 -1 -2 -2
2 3 4 1 2 5 7 8 9 10 11 12 11 11 11 11 11 11 11 11 10 9 9 9 9 9 9 9 8 8 7 7 7 8 6 6 4 4 1 2 0 -1 -3
6 5 5 5 6 4 6 8 10 9 11 11 11 11 10 11 11 11 10 10 10 10 9 9 8 10 9 7 8 8 8 8 8 8 8 7 6 6 5 2 1 -1 -2
5 4 5 5 6 4 4 6 8 8 9 9 11 11 8 9 10 9 10 9 10 10 10 9 10 8 7 5 5 8 7 7 8 8 9 8 7 8 7 5 2 1 -1
3 5 4 6 6 3 3 4 4 7 8 7 8 9 9 10 9 10 10 10 10 9 9 8 8 8 7 6 7 8 9 8 8 8 9 8 8 8 8 7 4 3 2
4 4 4 4 5 6 6 4 3 6 6 8 9 10 10 10 10 10 9 9 7 8 8 9 8 7 7 8 8 8 8 8 7 7 8 9 8 8 8 7 7 5 2
4 4 5 4 4 4 7 7 7 9 9 9 9 9 8 8 7 8 7 7 8 8 7 8 8 8 7 7 7 7 7 7 7 7 7 7 7 7 8 8 6 5 3
5 6 6 7 7 8 8 8 9 9 10 9 9 8 8 8 8 8 8 8 8 8 8 7 6 6 7 7 7 7 7 6 6 6 6 5 6 5 6 5 4 4 2
5 5 5 7 7 7 8 8 8 8 8 8 8 7 7 7 7 7 8 7 7 6 6 5 5 5 4 4 4 4 4 4 4 4 4 3 3 3 3 3 2 2 1
3 3 5 6 6 7 7 7 7 7 7 7 6 6 6 6 6 6 6 6 5 5 5 4 4 4 4 4 4 4 3 3 3 3 3 2 2 2 2 2 2 2 2

GFSMA_850_dewp_147.txt.gz
Dewpoint
13 12 13 13 13 12 11 10 6 -0 0 1 3 3 5 9 9 8 8 6 3 3 2 3 3 3 4 5 5 5 6 6 7 8 9 10 10 9 8 8 7 7 5
13 13 13 13 13 13 11 10 9 2 1 4 5 7 7 7 9 8 8 6 4 2 2 2 2 2 3 4 5 6 7 9 10 10 9 9 9 9 8 8 8 9 7
13 13 13 13 13 13 13 11 9 9 6 8 8 8 8 8 8 8 7 5 3 3 2 1 2 3 3 3 4 7 11 10 8 7 7 9 9 9 9 10 6 6 5
14 13 13 13 13 13 13 12 11 11 9 10 10 8 9 9 8 7 7 5 4 2 2 3 3 3 3 4 5 9 9 8 7 7 7 8 8 9 8 8 6 5 4
14 14 13 13 12 13 13 13 12 12 11 10 10 9 9 9 8 7 8 7 3 2 1 1 3 3 3 4 4 6 7 7 7 7 7 7 8 8 8 8 6 5 4
14 14 14 13 13 13 13 13 12 12 11 10 9 9 9 9 9 9 8 8 7 5 3 2 3 3 3 4 5 6 7 7 7 7 7 8 8 8 8 8 6 5 4
12 14 14 14 14 13 13 13 12 12 11 11 9 9 9 9 9 9 9 8 8 8 4 3 4 4 4 4 4 5 7 7 7 7 6 7 8 8 8 8 7 5 4
6 9 13 14 14 14 13 13 13 12 12 11 9 8 9 9 8 9 9 8 7 8 7 5 5 5 5 4 4 5 5 7 7 7 7 5 5 7 7 7 7 5 8
2 7 8 12 14 14 14 13 13 13 12 11 10 8 9 8 8 8 8 7 6 5 4 4 5 6 5 4 4 5 5 6 7 7 8 7 6 6 4 5 5 5 6
-10 4 6 6 11 13 13 13 13 13 13 12 11 9 8 8 8 6 6 5 4 4 5 4 5 5 5 5 4 5 5 5 6 8 8 8 6 4 4 3 4 6 8
-5 -7 0 4 5 10 11 12 12 13 13 13 12 11 8 8 8 7 7 6 5 5 7 7 7 7 6 5 5 5 6 6 6 7 8 8 7 5 4 3 3 3 8
-2 -3 -2 -0 2 5 8 10 11 12 13 13 13 12 11 9 8 8 8 9 8 6 5 6 6 4 4 4 3 3 4 5 6 6 7 8 7 6 4 4 3 1 1
-4 -2 -2 3 2 1 4 7 10 11 12 12 12 12 12 12 10 8 7 8 9 8 8 8 7 7 5 5 5 4 3 5 5 5 6 8 8 8 6 3 3 1 0
-2 -3 -3 -1 2 2 3 5 6 10 10 11 12 12 12 11 11 10 9 8 10 9 9 9 9 7 7 6 7 5 3 3 5 5 6 8 9 9 8 6 3 2 -0
-1 -1 -1 1 2 5 4 3 5 6 10 9 10 12 12 11 11 11 10 9 9 10 10 9 9 9 9 9 7 7 6 5 5 5 7 7 9 9 8 8 6 3 2
0 0 1 1 4 6 7 6 6 5 6 8 10 10 9 11 11 11 11 10 10 10 10 10 10 9 8 8 8 7 6 8 8 8 6 6 7 8 8 8 7 6 5
-0 -1 -1 0 -0 4 4 4 6 7 6 7 8 10 8 9 7 11 10 11 11 11 10 10 11 10 10 8 9 9 9 10 8 8 8 7 8 7 7 7 8 7 6
-0 -1 1 1 -1 -7 -8 -3 1 4 6 6 7 7 8 8 9 10 10 10 10 11 10 10 9 10 10 9 9 9 10 10 9 9 9 8 9 7 7 7 7 7 6
-4 -5 -5 -5 -6 -6 -4 -2 -4 -4 0 2 5 9 8 9 8 8 10 10 11 11 10 10 10 10 9 9 8 8 9 9 10 10 10 9 9 7 7 7 7 7 7
2 1 1 1 2 2 3 2 4 3 -3 -3 1 4 8 8 7 9 10 10 10 9 9 10 9 10 9 9 9 9 9 10 10 9 9 8 8 7 6 7 7 7 7
6 5 4 3 3 3 4 5 5 4 5 3 3 6 6 8 8 8 9 8 9 9 9 10 9 9 9 9 9 8 8 7 8 7 7 7 7 7 7 8 8 7 8
5 4 4 4 4 3 2 3 4 5 4 5 5 5 7 8 9 8 7 9 10 10 8 9 9 9 9 8 8 8 7 8 7 7 7 7 7 7 7 7 7 7 7
4 3 3 2 2 2 1 1 3 4 4 4 5 5 6 5 6 6 7 8 9 9 9 9 8 8 8 7 7 7 7 7 6 6 6 6 6 6 6 6 6 5 5
4 3 3 2 3 2 3 3 2 2 3 3 4 6 6 7 7 7 8 8 8 8 8 8 7 7 6 6 6 5 5 5 4 4 4 4 4 4 3 3 3 2 2
4 3 3 3 4 6 4 6 6 6 6 7 7 7 8 7 7 7 7 7 6 6 6 6 6 5 5 4 4 4 4 4 4 4 3 3 3 3 2 2 1 2 1
3 2 3 3 4 5 5 4 6 5 6 6 6 5 6 6 6 6 6 5 5 5 4 3 3 3 3 3 2 2 2 2 2 2 2 2 1 1 1 1 0 1 1